Location: Puketoi
(40.5833°S, 176.0167°E)
Time: 14:38:20
(UTC+00:00)

NOSS 3-4 (C) - Pass Details

Date: 08 February 2023
Orbit: 830 x 1382 km, 63.4° (Epoch: 19 March)

Event Time Altitude Azimuth Distance (km) Brightness Sun altitude
Rises 15:53:00 0° 216° (SW) 4,028 6.8 -17.3°
Reaches altitude 10° 15:55:52 10° 216° (SW) 2,978 6.1 -16.8°
Maximum altitude 16:02:52 85° 303° (WNW) 1,004 3.5 -15.8°
Drops below altitude 10° 16:08:55 10° 30° (NNE) 2,590 5.7 -14.9°
Sets 16:11:16 0° 30° (NNE) 3,473 6.4 -14.5°
